Lid_Strength_Index
1 1 1 0 0 0 -0 -1 -1 -1 -1 -1 -1 -1 -1 -1 -0 1 3 2 1 -2 0 3 3 4 3 4 4 6 10 11 11 11 10 8 9 8 8 9 8 7 8 8 7
1 1 1 1 0 0 -0 -0 -0 -1 -1 -1 -1 -1 -1 -0 2 3 2 -2 -2 -2 3 5 5 5 6 5 5 8 10 10 9 9 9 8 8 8 9 9 9 9 8 7 6
0 1 1 1 0 0 0 -0 -0 -1 -1 -1 -1 -1 -1 0 3 4 -1 -2 -2 1 3 4 4 5 7 6 7 8 10 9 9 7 7 8 9 8 10 10 10 9 8 8 7
0 0 1 1 0 0 0 -0 -0 -1 -1 -1 -1 -1 -0 1 8 3 -1 -2 -2 3 3 4 5 6 7 8 6 10 8 8 7 7 8 9 8 9 9 10 8 9 8 8 8
0 0 1 1 1 0 0 0 -0 -1 -1 -1 -1 -1 1 4 4 1 -1 -1 1 3 4 5 7 6 8 8 8 9 8 8 7 8 8 7 9 9 9 9 9 8 8 9 9
0 0 1 1 0 0 0 0 0 -0 -1 -1 -1 -0 2 7 1 1 2 2 3 4 5 5 6 6 8 8 9 8 8 8 8 7 8 9 9 9 9 9 9 9 10 10 10
0 0 0 0 0 0 0 0 0 -0 -0 -0 -1 2 4 5 1 1 3 3 3 4 5 4 5 6 7 8 7 8 10 8 8 8 9 9 11 10 9 9 10 10 11 10 10
0 1 1 1 0 0 0 0 0 0 -0 -0 -0 2 6 3 1 2 2 4 3 4 4 4 4 6 7 7 8 10 10 12 9 8 10 10 13 9 9 10 11 11 11 11 11
1 1 1 0 1 0 0 0 0 0 0 -0 2 3 6 2 4 2 3 4 4 4 5 5 5 7 8 11 12 11 14 12 11 9 10 11 12 11 10 10 11 11 11 11 12
0 1 1 1 0 0 0 0 0 0 1 1 2 6 5 6 4 3 3 4 5 6 6 7 8 10 10 12 15 13 13 11 12 10 10 12 12 11 11 11 12 11 11 12 12
2 1 1 0 0 0 1 2 4 5 3 5 5 5 5 6 4 5 4 5 5 7 10 8 11 13 11 10 10 10 11 12 10 10 12 12 12 10 11 12 12 12 12 12 12
1 1 2 1 1 1 1 4 4 4 7 4 4 4 5 5 8 6 4 7 8 10 9 11 13 10 8 9 10 11 12 13 11 11 12 12 13 11 11 12 11 11 12 13 13
1 2 1 1 1 2 3 3 2 2 7 6 4 5 5 6 7 8 6 7 9 10 10 12 10 8 9 10 12 12 13 13 13 12 12 14 15 13 11 11 11 11 11 12 13
1 2 2 2 3 3 4 2 2 2 11 9 7 5 5 6 9 6 6 8 10 11 10 11 8 10 11 12 12 14 11 12 13 14 17 14 18 14 12 12 12 12 13 13 14
2 1 2 2 3 4 3 2 3 4 19 8 8 6 6 8 8 10 8 9 11 11 10 12 12 12 13 12 11 13 12 13 13 15 16 16 17 15 12 12 14 13 13 14 14
3 2 2 2 3 3 2 2 4 13 19 11 10 10 10 9 11 10 10 9 10 11 11 12 11 12 12 11 11 11 13 14 15 15 19 15 15 16 13 12 13 13 13 13 14
3 3 2 1 4 2 2 4 13 18 9 12 12 10 10 11 12 12 13 13 14 15 15 13 13 12 11 13 12 12 15 19 20 20 20 15 16 14 12 13 12 13 13 13 13
3 3 3 1 2 2 3 9 17 13 12 10 10 10 12 11 12 13 14 15 12 13 14 16 17 13 11 12 13 14 14 18 22 21 19 19 20 16 15 14 13 12 12 13 14
2 2 3 2 2 2 7 15 15 12 9 11 11 12 12 11 11 13 14 14 12 13 15 15 14 12 12 12 11 14 16 12 16 21 21 18 16 14 15 15 15 13 13 13 14
5 4 4 1 2 3 10 13 12 8 8 9 13 11 13 12 13 13 13 11 12 11 10 12 16 14 15 13 13 13 12 17 16 21 22 19 18 17 17 16 15 14 14 13 13
4 7 3 0 1 7 13 12 10 7 7 10 11 12 11 12 13 14 13 11 10 11 10 12 13 17 15 16 15 15 16 15 13 16 20 21 18 14 12 14 15 14 13 13 14
5 10 2 1 9 9 12 10 9 8 7 8 9 10 11 11 12 12 13 11 9 9 13 11 12 17 16 13 12 12 13 13 16 18 16 17 16 14 14 13 13 13 13 13 13
7 7 2 3 12 12 9 10 9 9 9 9 10 9 9 11 14 12 11 9 9 10 11 10 14 18 17 15 14 15 14 13 13 15 17 19 17 14 14 13 13 13 13 13 13
6 10 7 6 6 9 11 11 11 8 9 8 9 8 10 11 10 12 12 10 10 10 8 9 14 15 17 15 15 17 15 14 14 16 17 16 15 16 15 14 14 13 13 13 13
6 9 7 11 10 9 9 10 11 12 8 8 10 10 11 13 12 13 11 10 11 11 10 10 15 14 13 13 13 15 16 15 15 15 17 15 14 12 13 14 13 12 13 13 13
7 8 7 8 8 9 9 11 11 11 10 11 12 10 10 12 12 14 11 11 11 12 12 11 15 14 15 14 13 14 13 14 15 14 14 14 14 11 10 12 14 13 13 13 13
3 5 7 8 9 11 11 10 10 9 9 8 9 10 12 10 9 10 11 11 10 11 13 14 15 16 17 15 14 17 14 13 13 13 13 16 13 13 13 13 14 13 13 13 12